Flag for U.S.A. Weather past 2 weeks in Charleston, West Virginia, U.S.A.

Now
57 °F

Mostly cloudy.


Feels Like: 56 °F
Forecast: 39 / 62 °F
Wind: 7 mph from North

Location: Yeager Airport

Current Time: Apr 27, 2015 at 4:53:01 PM

Latest Report: Apr 27, 2015 at 3:54 PM


Visibility: 10 mi

Pressure: 29.91 "Hg

Humidity: 39%

Dew point: 32 °F

Location of CharlestonLocation

Historic Weather in Charleston — Graph

°F

Charleston temperature yesterday

Maximum temperature yesterday: 63 °F (at 4:54 PM)
Minimum temperature yesterday: 43 °F (at 5:54 AM)
Average temperature yesterday: 51 °F

Past Weeks' High & Low Weather Summary

 TemperatureHumidityPressure
High85 °F (Apr 13, 5:54 PM)97% (Apr 14, 1:54 AM)30.26 "Hg (Apr 14, 1:54 AM)
Low32 °F (Apr 24, 6:54 AM)19% (Apr 12, 3:54 PM)29.50 "Hg (Apr 20, 4:54 PM)
Average57 °F60%29.94 "Hg
* Reported Apr 12 3:54 PM — Apr 27 3:54 PM, Charleston, Weather by CustomWeather, © 2015

Note: Actual official high and low records may vary slightly from our data, if they occured in-between our weather recording intervals... More about our weather records

Advertising

Charleston weather history for previous 24 hours

 ConditionsComfort  
Time TempWeatherWind HumidityBarometerVisibility
3:54 PM
Mon, Apr 27
57 °FMostly cloudy.7 mph39%29.91 "Hg10 mi
2:54 PM57 °FPartly sunny.7 mph37%29.91 "Hg10 mi
1:54 PM55 °FPartly sunny.8 mph41%29.94 "Hg10 mi
12:54 PM54 °FPartly sunny.9 mph41%29.93 "Hg10 mi
11:54 AM55 °FPartly sunny.12 mph42%29.93 "Hg10 mi
10:54 AM52 °FScattered clouds.12 mph47%29.94 "Hg10 mi
9:54 AM49 °FPassing clouds.8 mph50%29.95 "Hg10 mi
8:54 AM46 °FSunny.3 mph63%29.93 "Hg10 mi
7:54 AM40 °FSunny.3 mph83%29.92 "Hg10 mi
6:54 AM36 °FClear.3 mph92%29.89 "Hg10 mi
5:54 AM39 °FClear.3 mph76%29.87 "Hg10 mi
4:54 AM39 °FClear.No wind76%29.86 "Hg10 mi
3:54 AM44 °FClear.3 mph58%29.85 "Hg10 mi
2:54 AM46 °FClear.5 mph54%29.85 "Hg10 mi
1:54 AM46 °FClear.5 mph56%29.85 "Hg10 mi
12:54 AM49 °FClear.No wind50%29.84 "Hg10 mi
11:54 PM
Sun, Apr 26
50 °FClear.6 mph52%29.83 "Hg10 mi
10:54 PM51 °FClear.3 mph48%29.81 "Hg10 mi
9:54 PM53 °FPassing clouds.6 mph45%29.80 "Hg10 mi
8:54 PM54 °FSunny.5 mph41%29.78 "Hg10 mi
7:54 PM59 °FPassing clouds.8 mph32%29.75 "Hg10 mi
6:54 PM62 °FPassing clouds.7 mph26%29.74 "Hg10 mi
5:54 PM63 °FPassing clouds.12 mph29%29.73 "Hg10 mi
4:54 PM63 °FPartly sunny.10 mph34%29.72 "Hg10 mi
Weather by CustomWeather, © 2015

See weather overviewHow to use our weather pages